Location: Keppel Henge
(44.7900°N, 80.9447°W)
Time: 12:46:13
(UTC-05:00)

Vanguard 1 Rocket - Pass Details

Date: 31 October 2017
Orbit: 655 x 4222 km, 34.3° (Epoch: 18 November)

Event Time Altitude Azimuth Distance (km) Brightness Sun altitude
Rises 05:46:41 0° 240° (WSW) 7,308 - -24.2°
Reaches altitude 10° 05:52:39 10° 235° (SW) 5,724 - -23.2°
Exits shadow 05:55:50 17° 231° (SW) 4,845 10.6 -22.6°
Maximum altitude 06:06:20 41° 173° (S) 2,420 9.5 -20.8°
Drops below altitude 10° 06:13:49 10° 106° (ESE) 3,173 11.3 -19.4°
Sets 06:16:08 0° 98° (E) 3,851 12.3 -19.0°
